Location: Christian Reformed Church
(43.0975°N, 93.8113°W)
Time: 21:30:01
(UTC+00:00)

Cosmos 1484 Rocket - Pass Details

Date: 13 December 2025
Orbit: 439 x 472 km, 97.6° (Epoch: 12 January)

Event Time Altitude Azimuth Distance (km) Brightness Sun altitude
Rises 12:36:56 0° 3° (N) 2,466 6.0 -10.9°
Reaches altitude 10° 12:39:07 10° 353° (N) 1,582 4.9 -10.5°
Maximum altitude 12:42:09 32° 289° (WNW) 797 3.1 -10.0°
Drops below altitude 10° 12:45:09 10° 225° (SW) 1,556 4.9 -9.5°
Sets 12:47:16 0° 215° (SW) 2,417 6.0 -9.2°
